RH
39 42 53 70 84 94 99 100 100 91 99 100 83 89 65 53 50 69 76 89 78 85 77 69 54 52 60 67 98 96 58 35 38 53 64 72 59 54 42 41 40 41 40 41 37 35 50 24 20
23 26 26 28 32 42 54 67 78 86 94 92 99 100 100 95 91 66 47 65 70 72 82 75 67 62 52 63 72 89 84 82 46 37 38 65 77 60 55 48 43 50 49 47 45 44 41 33 23
34 29 23 26 39 30 26 33 44 55 64 78 74 67 54 98 100 100 99 92 68 55 50 59 52 48 56 51 72 90 90 82 63 61 40 39 55 72 53 50 53 46 55 46 50 45 39 34 25
51 49 43 41 32 31 32 29 26 26 30 39 50 67 68 50 73 100 100 100 100 96 74 61 52 49 43 38 70 91 87 86 70 66 43 44 50 58 54 50 48 49 45 53 48 38 36 30 28
70 70 67 63 56 41 31 42 37 21 17 21 26 31 36 48 62 64 87 100 100 99 91 84 68 53 39 31 44 86 100 100 89 64 59 50 56 63 56 48 44 50 40 38 38 34 32 32 30
49 55 56 63 60 48 39 47 25 16 15 13 14 17 16 23 32 40 53 67 90 98 89 97 78 56 30 26 22 56 100 100 100 98 76 70 66 57 50 52 45 43 47 38 38 32 34 34 28
61 59 57 51 46 36 32 29 23 21 16 11 11 14 12 11 15 19 31 38 42 62 88 100 100 73 60 33 20 34 88 100 100 100 100 92 84 58 53 37 31 40 51 47 40 35 30 38 36
56 48 45 43 43 39 32 30 28 24 21 17 16 17 15 12 14 14 16 22 26 32 38 69 85 94 100 61 61 58 81 100 100 100 100 100 89 93 71 47 42 45 51 49 41 37 33 32 40
61 48 43 46 41 37 29 25 20 21 20 19 17 18 18 16 18 15 13 15 17 18 23 30 39 46 85 94 67 73 81 100 100 100 100 100 100 100 95 78 71 62 70 69 45 48 45 41 42
42 40 37 37 31 30 27 20 19 18 17 16 16 17 16 16 16 19 19 16 15 18 19 21 24 31 42 96 84 69 91 100 100 100 100 100 100 100 100 100 100 98 92 76 55 62 62 47 46
51 42 38 28 26 22 20 17 12 13 13 12 11 12 11 12 12 15 16 18 17 15 18 18 19 21 27 47 96 72 57 95 100 100 100 100 100 100 100 100 100 100 100 88 90 86 82 59 60
52 42 31 25 23 19 15 12 12 11 10 8 5 5 4 5 6 6 14 16 19 18 17 20 17 18 19 24 56 81 54 46 84 79 100 100 100 100 100 100 99 100 100 100 100 92 45 57 70
43 34 27 22 18 14 10 10 9 6 6 4 5 4 4 4 5 6 5 8 14 19 18 18 19 17 18 18 28 45 47 69 100 100 97 100 100 100 100 100 90 53 34 41 54 52 67 78 76
48 31 23 18 13 11 9 9 7 5 5 4 4 5 4 4 4 4 6 6 8 13 18 18 18 18 18 16 18 22 47 64 77 74 84 72 100 93 100 100 100 47 22 31 38 53 73 78 80
50 29 20 15 11 10 10 7 6 6 5 4 4 3 4 4 4 4 4 6 7 9 14 19 20 19 18 16 14 19 49 46 99 100 100 88 81 84 82 100 100 86 56 26 39 44 52 100 76
36 27 18 13 11 10 8 7 6 6 4 3 3 2 2 3 3 4 4 5 6 8 11 16 20 21 19 17 14 15 33 58 100 100 100 100 97 94 92 70 100 100 91 61 72 47 46 46 60
24 26 18 12 11 13 8 8 6 5 3 3 3 3 3 2 3 3 4 5 6 6 10 14 17 20 19 18 14 13 21 68 97 100 100 100 100 100 77 78 88 100 94 54 73 60 46 46 61
34 35 25 13 13 16 8 8 5 4 3 4 4 3 3 3 3 3 3 5 6 6 8 11 15 18 19 17 14 12 17 92 99 100 100 100 100 100 84 56 74 100 100 60 88 64 47 50 73
52 35 26 14 15 18 9 7 4 4 4 4 4 4 4 3 3 4 2 3 5 6 6 9 13 14 17 18 14 12 15 56 100 100 100 100 93 99 86 41 48 74 100 71 67 67 50 51 94
57 55 31 17 16 16 10 7 4 4 4 4 4 4 4 4 4 4 3 2 4 6 6 7 12 13 16 16 14 12 13 31 88 100 87 100 100 100 92 93 57 58 100 96 59 61 51 47 52
59 37 28 20 16 19 10 7 4 4 5 5 4 4 4 4 4 4 4 2 3 5 7 6 9 13 14 15 13 12 12 23 87 100 100 100 100 100 100 86 63 63 100 100 89 54 51 47 54
67 38 29 26 14 18 10 8 5 4 5 6 6 4 4 4 4 4 4 4 3 3 6 7 8 12 13 13 13 12 12 18 64 100 100 100 100 100 100 80 60 59 86 100 100 75 42 43 46
76 54 38 30 15 14 10 8 6 5 5 5 5 4 5 4 4 4 4 4 2 3 5 7 8 12 12 12 13 11 13 19 58 100 100 100 100 100 100 100 90 51 63 83 99 96 61 48 41
93 73 42 39 16 15 11 8 6 6 6 6 5 5 4 4 4 4 4 4 4 3 3 6 8 11 13 12 12 11 13 19 44 100 100 100 100 100 100 100 95 80 89 78 96 100 63 53 41
94 90 39 42 20 13 13 10 5 7 8 8 6 5 4 4 4 4 4 4 4 4 3 5 6 8 13 12 11 11 13 18 48 90 100 100 69 100 100 100 100 100 99 76 75 100 78 55 45
86 82 55 41 23 14 18 12 7 8 7 7 8 7 5 4 3 3 4 4 3 4 3 3 5 6 10 11 11 10 13 18 44 85 100 100 100 100 100 100 100 100 100 100 87 97 92 67 46
71 90 80 50 26 18 14 15 11 9 8 7 7 8 6 4 3 2 3 3 3 3 3 2 5 5 9 11 12 11 14 18 50 67 100 100 100 100 100 100 94 100 100 100 100 100 100 80 58
86 78 49 43 22 16 13 12 11 9 10 9 9 9 8 5 3 2 2 2 3 3 3 2 3 5 6 11 11 11 15 17 41 62 99 100 100 100 100 100 94 100 98 97 100 100 95 78 67
90 69 63 30 21 19 15 10 13 7 9 9 9 6 5 5 4 2 2 2 2 3 3 2 2 4 5 8 11 12 14 20 35 67 100 100 100 99 100 100 100 100 97 100 100 100 100 87 98
96 81 62 39 25 18 18 12 11 6 7 6 6 5 4 3 3 2 2 2 2 2 2 2 2 4 5 7 11 12 14 25 35 83 100 100 100 89 100 100 86 100 100 100 100 100 100 88 100
Wind_Speed
27 33 35 34 36 38 41 52 57 65 54 57 63 64 61 62 62 61 62 65 61 61 60 57 54 52 51 51 48 48 45 45 41 40 39 37 34 32 29 28 27 25 23 23 22 23 22 21 23
30 29 31 34 40 43 46 46 50 55 60 70 65 60 62 64 68 66 64 68 67 65 65 63 59 56 53 56 53 53 52 49 46 44 42 41 38 37 33 30 29 28 27 27 28 27 26 25 23
32 35 39 43 44 48 49 50 56 57 62 64 70 75 78 65 69 70 70 72 72 69 68 67 63 58 57 58 56 56 54 53 49 47 45 42 40 40 37 34 33 31 32 31 30 29 30 27 27
39 41 43 48 53 55 55 60 63 64 66 68 71 74 74 80 79 70 72 72 71 72 73 72 70 62 61 58 57 58 58 57 52 50 48 46 45 44 42 39 38 36 34 34 33 31 32 30 28
44 47 49 52 57 60 59 65 70 74 73 75 78 84 79 82 79 85 79 77 79 79 78 76 73 66 65 62 59 58 58 59 54 52 51 50 49 47 46 44 41 40 40 39 37 37 34 33 31
42 49 52 58 66 72 71 72 78 77 80 84 84 87 90 87 90 89 86 84 80 80 81 78 75 72 68 64 63 59 58 58 58 56 53 53 52 49 49 50 46 47 45 43 42 39 35 35 34
51 55 61 66 72 83 81 84 84 88 90 87 84 90 95 92 90 93 96 94 92 85 81 81 79 75 71 64 65 62 57 51 54 58 58 55 53 52 51 51 51 49 50 45 45 43 36 37 37
53 55 61 67 76 86 90 92 90 92 92 94 96 103 102 90 95 98 98 97 97 94 94 86 81 74 74 69 63 58 53 54 47 52 56 55 55 52 52 53 50 50 47 45 45 43 42 41 40
59 66 68 70 76 85 94 100 104 105 105 105 101 105 98 86 104 106 99 101 102 98 95 92 90 93 74 76 72 55 57 65 52 47 51 56 56 55 55 58 56 54 52 51 45 44 44 42 41
61 69 74 76 82 84 89 102 105 107 106 106 107 109 107 103 96 102 108 104 105 104 103 95 91 89 92 75 78 70 62 63 62 49 50 49 51 52 54 55 57 59 56 53 51 50 50 46 44
64 68 73 79 84 94 99 104 111 110 111 107 107 96 95 105 101 103 103 103 108 113 108 104 98 91 88 87 81 80 75 63 67 64 63 53 47 45 45 52 57 62 58 55 56 53 51 49 45
69 70 71 76 82 92 103 109 102 98 91 83 79 81 80 78 87 99 105 112 109 108 116 110 104 98 91 88 84 84 81 76 72 58 63 59 49 45 43 42 43 51 54 56 55 55 48 49 44
72 74 78 80 86 99 104 100 90 85 81 75 75 75 78 79 85 93 104 105 104 112 108 115 110 105 96 91 87 81 82 80 71 65 62 57 54 50 46 46 45 44 42 47 47 43 39 44 40
79 77 76 82 95 97 101 90 81 80 75 70 65 70 75 75 81 87 99 109 115 110 114 114 117 111 105 97 91 83 78 75 68 61 59 67 62 56 47 51 47 35 39 44 43 37 36 39 39
83 78 81 87 95 99 90 84 79 73 69 64 61 60 67 74 77 82 90 102 115 121 114 115 121 119 110 102 96 85 80 67 56 57 67 64 62 58 51 50 47 34 34 38 38 37 35 35 37
87 86 85 90 94 95 92 87 79 70 64 58 53 53 55 64 73 79 86 95 108 120 122 118 119 122 116 110 101 91 83 74 72 62 78 70 61 58 57 48 44 38 32 34 34 38 39 36 36
95 92 88 90 88 87 87 82 73 66 58 51 48 45 47 54 65 74 82 90 99 112 126 123 123 123 120 114 108 99 87 84 87 83 82 67 63 59 59 52 40 40 30 34 30 34 38 39 37
103 107 96 95 89 87 87 77 70 56 50 45 41 41 41 45 56 68 77 85 95 107 122 126 127 125 123 118 113 107 95 92 92 83 80 80 68 61 56 49 42 40 35 30 31 32 37 40 42
110 113 105 99 93 87 88 76 70 55 47 40 32 33 37 39 45 58 70 80 90 102 114 129 130 130 126 124 118 114 102 101 98 87 62 74 77 74 60 51 46 41 42 30 32 31 36 42 48
121 113 120 105 97 91 87 76 68 55 47 38 30 28 29 32 35 48 63 71 84 95 109 124 131 134 130 128 122 119 110 105 102 90 80 75 82 81 66 57 48 45 43 35 29 29 34 38 44
129 123 118 107 96 95 87 77 69 55 47 38 33 25 24 27 32 41 57 66 76 91 104 117 128 137 135 133 128 123 115 109 106 101 84 74 74 87 81 63 56 48 42 38 33 31 33 37 44
127 131 128 120 101 93 84 76 66 55 46 38 31 28 22 22 31 39 50 61 69 84 101 113 124 137 139 136 133 127 123 114 110 101 94 90 82 75 78 61 58 51 45 42 38 33 33 36 39
129 130 137 122 106 93 88 77 67 59 47 39 31 25 25 21 28 38 47 56 64 77 97 111 119 137 142 138 136 134 129 120 115 110 101 93 88 79 82 67 59 53 47 42 41 33 31 36 36
130 135 137 129 110 98 93 80 69 58 49 44 38 30 22 23 25 35 45 53 58 72 90 107 118 135 143 142 140 139 131 125 118 111 104 100 92 87 89 76 66 61 50 46 42 34 27 28 35
132 134 140 137 124 100 97 85 71 61 51 42 36 33 27 21 23 31 41 49 55 69 83 102 115 131 143 144 143 143 134 129 124 118 105 100 95 85 83 77 70 69 61 47 42 37 30 26 31
136 140 144 145 128 106 103 90 78 65 54 47 38 36 33 28 24 27 36 45 52 66 80 96 112 124 142 144 145 147 139 133 129 122 108 101 94 84 84 84 73 71 67 54 49 39 31 32 32
141 143 143 141 128 109 98 92 87 69 58 50 40 35 35 35 30 24 31 41 45 58 76 89 107 117 139 144 149 150 143 139 133 122 112 109 99 91 87 88 79 74 67 60 53 45 33 34 33
140 145 146 145 132 115 103 94 86 69 58 52 46 38 33 36 38 29 25 34 40 51 70 83 100 115 134 147 150 152 147 144 136 125 117 106 102 99 87 90 81 73 70 66 54 46 45 44 35
145 149 148 152 142 125 107 97 88 73 56 47 40 37 33 33 35 33 23 29 36 47 67 79 95 111 128 143 155 155 152 149 137 128 119 109 105 98 98 87 84 76 72 62 57 47 45 44 38
144 151 147 153 149 129 112 103 91 79 65 49 42 37 35 31 30 28 21 25 35 48 64 76 89 107 123 140 157 159 158 152 140 131 119 111 107 104 99 93 88 84 76 66 61 47 49 44 40
Wind_Direction
268 267 270 267 264 263 259 249 257 256 248 241 244 244 246 245 246 245 243 244 242 241 241 242 239 236 239 241 241 245 248 251 248 245 247 250 244 246 254 254 258 259 266 265 268 275 279 281 277
280 275 267 267 266 262 261 262 266 259 251 256 256 244 238 239 241 241 243 243 241 240 242 240 240 239 236 242 245 246 250 253 252 253 252 246 246 249 256 253 253 252 258 264 269 269 276 277 277
284 280 274 273 272 268 262 262 260 260 261 256 250 251 252 242 235 234 236 237 242 243 243 240 239 241 238 238 243 247 248 249 251 251 251 251 249 246 258 257 253 254 255 263 266 268 268 272 275
292 288 282 276 272 269 269 266 264 261 258 258 258 256 250 244 245 238 232 232 234 238 244 245 244 241 238 237 243 246 247 248 251 247 246 249 247 250 253 255 254 253 257 260 261 262 264 267 274
298 292 289 283 279 273 269 269 266 264 257 255 255 253 251 251 246 243 238 235 234 237 240 241 242 239 238 236 240 243 246 248 249 247 247 246 246 247 250 254 256 252 261 261 262 260 260 263 269
303 298 295 290 286 276 269 265 264 261 260 256 253 253 249 248 249 246 246 242 238 236 233 237 237 240 241 237 237 240 240 247 250 250 249 247 246 246 251 253 256 256 261 264 259 257 254 256 265
301 296 293 291 289 284 281 275 265 265 264 260 260 260 254 249 249 249 247 245 243 241 237 232 231 235 238 240 234 234 240 241 248 251 250 248 248 249 250 252 256 257 260 261 255 253 253 255 260
313 308 307 300 295 291 289 286 283 282 278 272 270 265 255 249 252 247 245 245 244 243 241 236 236 229 230 236 234 227 230 232 242 248 249 248 247 249 251 254 256 259 256 258 253 253 254 252 254
309 305 303 303 301 293 289 289 290 289 285 282 279 274 270 263 249 247 246 244 243 242 240 240 238 235 230 229 231 218 218 228 228 238 247 250 249 252 252 252 253 254 256 257 252 255 260 254 251
317 310 308 301 299 297 295 296 293 288 286 282 277 273 268 260 254 249 244 244 241 241 238 237 236 235 231 226 226 225 217 223 224 227 237 243 249 253 253 252 252 251 255 252 254 255 259 253 249
328 319 308 305 303 300 303 299 298 291 287 282 278 272 264 261 253 248 246 238 236 236 237 235 233 232 231 224 224 222 221 218 223 232 236 241 242 249 253 253 252 251 253 255 257 255 258 248 247
332 325 319 314 310 308 306 301 298 294 290 283 274 266 254 245 243 240 243 237 235 232 233 233 232 230 228 225 221 224 223 225 225 223 232 239 239 240 248 248 249 251 251 251 253 256 249 242 247
333 327 322 317 316 316 310 306 303 299 292 286 277 269 262 249 237 232 231 228 231 229 228 228 230 231 226 224 220 219 223 221 223 223 228 235 240 241 245 250 248 248 250 251 248 245 241 239 243
342 333 328 322 324 316 315 310 307 301 296 289 278 269 260 254 242 232 228 224 220 223 224 223 224 227 227 223 218 215 219 218 221 227 230 229 234 239 235 251 251 252 248 245 244 236 237 241 242
347 340 333 331 327 323 322 317 313 309 300 292 284 270 259 251 244 235 228 227 219 214 217 220 219 222 223 221 216 212 212 206 202 204 222 235 231 233 230 243 250 250 247 242 236 233 234 229 239
353 347 338 335 333 327 326 323 321 312 305 296 285 273 258 248 243 236 228 224 224 213 211 212 213 216 217 218 213 210 206 201 195 191 216 226 230 230 234 230 244 251 252 241 234 228 229 231 231
357 353 340 342 336 331 329 326 323 315 308 300 288 275 260 246 239 235 229 224 221 216 208 208 209 212 213 214 211 208 201 199 195 201 217 215 222 226 228 231 230 247 252 240 237 233 227 230 226
1 360 352 345 342 337 333 332 326 322 311 302 287 276 263 248 239 235 229 223 218 216 213 208 206 207 208 208 207 205 199 196 197 199 203 208 217 223 225 229 227 237 247 238 233 233 229 228 221
3 6 359 350 347 343 338 336 333 327 318 308 290 277 268 252 237 231 232 222 219 214 212 210 204 204 205 204 204 203 197 196 196 196 193 205 218 228 231 222 229 229 241 240 237 233 232 231 219
3 2 2 355 350 346 344 341 336 330 325 316 306 288 270 260 241 227 228 224 217 213 211 210 205 202 203 201 201 201 196 198 199 193 194 204 202 219 219 225 227 227 237 237 229 233 233 234 228
5 5 2 357 354 349 350 347 340 337 332 324 317 302 278 255 243 227 225 225 216 212 210 210 206 203 201 200 197 197 195 196 196 194 196 194 197 220 222 226 223 223 230 234 226 232 231 234 233
5 6 4 359 356 354 352 350 344 341 337 331 323 312 296 258 240 229 224 224 218 211 208 208 206 203 200 199 195 194 196 196 196 196 193 198 202 214 215 215 222 225 224 235 237 231 236 231 236
8 7 6 1 358 357 354 354 350 345 340 338 330 321 304 273 240 231 225 223 219 211 208 206 206 202 200 196 193 193 194 194 194 194 194 195 198 208 212 218 219 221 223 228 236 234 230 233 233
7 7 7 4 359 1 356 355 354 349 345 339 334 321 299 275 252 233 230 225 218 213 209 206 204 201 199 195 193 192 192 192 193 194 192 197 196 204 207 210 216 222 226 234 231 232 234 240 234
7 6 8 6 2 4 359 357 357 354 348 340 329 324 312 293 262 241 232 230 220 212 209 208 203 201 199 195 193 191 191 191 191 194 193 191 195 197 202 209 216 227 227 221 230 226 227 240 238
7 7 6 7 4 3 3 0 359 356 349 346 337 325 317 302 279 248 236 231 224 213 209 206 205 201 198 194 191 189 190 190 191 192 193 192 194 205 203 205 213 222 222 225 227 225 237 249 246
6 6 5 7 6 1 6 3 1 357 352 346 342 330 319 311 293 264 239 235 227 214 211 206 205 201 197 195 190 188 189 191 189 193 193 191 197 197 203 203 214 219 218 227 225 228 232 246 243
6 7 7 6 7 4 4 5 2 1 356 350 345 338 321 306 299 284 254 236 226 214 211 208 204 201 197 193 190 188 188 189 190 190 194 195 193 196 201 202 208 218 220 225 223 223 236 250 238
6 9 6 9 5 5 3 4 4 0 359 356 346 334 325 305 295 290 267 239 220 211 209 207 203 202 198 196 191 187 188 188 188 191 190 190 195 194 197 200 209 216 218 220 223 223 238 239 231
3 8 6 6 6 5 3 3 6 0 358 359 347 340 333 318 301 291 269 241 217 209 208 205 202 200 197 197 189 187 187 187 187 189 189 191 197 197 201 204 207 209 215 220 223 226 237 226 223